* Astronomy

Members Login
Post Info TOPIC: Comet P/2002 P2 (NEAT) = P/2010 P1


L

Posts: 131433
Date:
Comet P/2002 P2 (NEAT) = P/2010 P1
Permalink  
 


Orbital elements:
P/2002 P2 (NEAT) = P/2010 P1
Epoch 2010 Oct. 11.0 TT = JDT 2455480.5
T 2010 Oct. 4.26925 TT MPC
q 2.1238403 (2000.0) P Q
n 0.12987536 Peri. 351.92355 +0.38108670 -0.84034941
a 3.8617564 Node 74.97487 +0.86899129 +0.18323312
e 0.4500325 Incl. 23.52274 +0.31563754 +0.51013576
P 7.59
From 137 observations 2002 Oct. 5-2010 Aug. 11

MPEC 2010 - P51


__________________
Page 1 of 1  sorted by
 
Quick Reply

Please log in to post quick replies.



Create your own FREE Forum
Report Abuse
Powered by ActiveBoard